Weather observations for the past three days for
Lake Elmo Airport
Imperial (Metric)
Date Time (cdt) Wind (mph) Vis. (mi.) Weather Sky Cond. Temperature (ºF) Relative Humidity Wind Chill (°F) Heat Index (°F) Pressure Precipitation (in)
Air Dwpt 6 hour altimeter (in) sea level (mb) 1 hr 3 hr 6 hr
Max. Min.
20 10:55 Calm 10.00 Fair CLR 75.2 64.4 69% 77 30.13 0.0
20 10:35 Calm 10.00 Fair CLR 73.4 64.4 74% 30.13 0.0
20 10:15 Calm 10.00 Fair CLR 73.4 62.6 69% 30.13 0.0
20 09:55 Calm 10.00 Fair CLR 73.4 64.4 74% 30.13 0.0
20 09:35 Calm 10.00 Fair CLR 73.4 64.4 74% 30.12 0.0
20 09:15 Calm 10.00 Fair CLR 71.6 64.4 78% 30.12 0.0
20 08:55 S 3 10.00 Fair CLR 69.8 64.4 83% 30.12 0.0
20 08:35 Calm 10.00 Fair CLR 69.8 62.6 78% 30.13 0.0
20 08:15 Calm 10.00 Partly Cloudy SCT049 68 62.6 83% 30.13 0.0
20 07:55 Calm 10.00 Partly Cloudy SCT047 68 62.6 83% 30.13 0.0
20 07:35 S 3 10.00 Fair CLR 68 62.6 83% 30.12 0.0
20 07:15 Calm 10.00 Partly Cloudy SCT090 66.2 62.6 88% 30.12 0.0
20 06:55 Calm 10.00 Mostly Cloudy SCT075 BKN090 64.4 62.6 94% 30.12 0.0
20 06:35 S 5 10.00 Partly Cloudy SCT090 64.4 62.6 94% 30.11 0.0
20 06:15 S 3 10.00 Mostly Cloudy SCT046 BKN090 62.6 60.8 94% 30.11 0.0
20 05:55 Calm 10.00 Mostly Cloudy SCT041 BKN050 BKN070 62.6 60.8 94% 30.11 0.0
20 05:35 Calm 10.00 Mostly Cloudy SCT039 SCT050 BKN065 62.6 60.8 94% 30.11 0.0
20 05:15 Calm 7.00 Partly Cloudy SCT039 SCT060 SCT085 62.6 60.8 94% 30.1 0.0
20 04:55 Calm 10.00 Mostly Cloudy SCT060 SCT070 BKN085 62.6 60.8 94% 30.1 0.0
20 04:35 Calm 10.00 Mostly Cloudy BKN041 BKN050 BKN060 64.4 62.6 94% 30.09 0.0
20 04:15 Calm 10.00 Overcast SCT041 OVC050 64.4 60.8 88% 30.09 0.0
20 03:55 Calm 10.00 Overcast SCT041 BKN050 OVC080 64.4 62.6 94% 30.09 0.0
20 03:35 S 3 10.00 Overcast BKN041 OVC050 64.4 62.6 94% 30.08 0.0
20 03:15 S 3 10.00 Overcast BKN043 OVC055 64.4 62.6 94% 30.08 0.0
20 02:55 Calm 10.00 Overcast BKN043 OVC055 64.4 62.6 94% 30.08 0.0
20 02:35 Calm 10.00 Overcast SCT055 OVC070 62.6 60.8 94% 30.08 0.0
20 02:15 Calm 10.00 Mostly Cloudy BKN070 60.8 60.8 100% 30.08 0.0
20 01:55 Calm 10.00 Fair CLR 60.8 59 94% 30.09 0.0
20 01:35 Calm 10.00 Fair CLR 62.6 60.8 94% 30.09 0.0
20 01:15 Calm 10.00 Fair CLR 62.6 60.8 94% 30.08 0.0
20 00:55 Calm 10.00 Fair CLR 62.6 60.8 94% 30.09 0.0
20 00:35 Calm 10.00 Fair CLR 62.6 60.8 94% 30.09 0.0
20 00:15 Calm 10.00 Partly Cloudy SCT050 SCT065 64.4 62.6 94% 30.09 0.0
19 23:55 Calm 10.00 Mostly Cloudy SCT050 BKN065 BKN090 64.4 60.8 88% 30.09 0.0
19 23:35 Calm 10.00 Partly Cloudy SCT065 64.4 60.8 88% 30.09 0.0
19 23:15 Calm 10.00 Fair CLR 64.4 60.8 88% 30.09 0.0
19 22:55 Calm 10.00 Fair CLR 66.2 60.8 83% 30.1 0.0
19 22:35 Calm 7.00 Fair CLR 66.2 60.8 83% 30.09 0.0
19 22:15 Calm 10.00 Fair CLR 68 62.6 83% 30.09 0.0
19 21:55 Calm 10.00 Partly Cloudy SCT095 68 62.6 83% 30.09 0.0
19 21:35 Calm 10.00 Mostly Cloudy SCT055 BKN095 69.8 62.6 78% 30.09 0.0
19 21:15 Calm 10.00 Mostly Cloudy SCT055 SCT065 BKN085 68 62.6 83% 30.08 0.0
19 20:55 Calm 10.00 Mostly Cloudy BKN065 69.8 60.8 73% 30.08 0.0
19 20:35 SE 3 10.00 Partly Cloudy SCT065 SCT080 71.6 60.8 69% 30.08 0.0
19 20:15 SE 3 10.00 Partly Cloudy SCT075 71.6 60.8 69% 30.07 0.0
19 19:55 SE 3 10.00 Partly Cloudy SCT075 71.6 62.6 73% 30.07 0.0
19 19:35 SE 3 10.00 Mostly Cloudy SCT055 BKN075 73.4 60.8 65% 30.08 0.0
19 19:15 SE 3 10.00 Overcast SCT055 OVC065 73.4 60.8 65% 30.07 0.0
19 18:55 S 5 10.00 Mostly Cloudy BKN055 BKN075 73.4 60.8 65% 30.08 0.0
19 18:35 S 6 10.00 Overcast OVC055 75.2 60.8 61% 77 30.08 0.0
19 18:15 S 7 10.00 Mostly Cloudy BKN055 BKN080 75.2 60.8 61% 77 30.08 0.0
19 17:55 S 8 10.00 Mostly Cloudy SCT050 BKN055 BKN080 75.2 60.8 61% 77 30.08 0.0
19 17:35 S 6 10.00 Mostly Cloudy BKN055 BKN070 BKN080 75.2 59 57% 78 30.09 0.0
19 17:15 S 6 10.00 Overcast BKN055 OVC070 75.2 59 57% 78 30.09 0.0
19 16:55 S 8 10.00 Mostly Cloudy BKN055 77 59 54% 79 30.09 0.0
19 16:35 S 8 10.00 Mostly Cloudy BKN055 BKN075 77 59 54% 79 30.09 0.0
19 16:15 S 9 10.00 Overcast OVC055 77 59 54% 79 30.09 0.0
19 15:55 S 8 10.00 Overcast OVC055 77 59 54% 79 30.09 0.0
19 15:35 S 9 10.00 Mostly Cloudy BKN055 77 57.2 51% 79 30.09 0.0
19 15:15 S 7 10.00 Partly Cloudy SCT060 77 57.2 51% 79 30.1 0.0
19 14:55 S 8 10.00 Partly Cloudy SCT060 78.8 59 51% 80 30.1 0.0
19 14:35 SE 5 10.00 Partly Cloudy SCT060 77 55.4 47% 79 30.1 0.0
19 14:15 S 9 10.00 Partly Cloudy SCT050 77 59 54% 79 30.11 0.0
19 13:55 S 7 10.00 Partly Cloudy SCT055 77 57.2 51% 79 30.12 0.0
19 13:35 SW 7 10.00 Fair CLR 77 55.4 47% 79 30.12 0.0
19 13:15 S 8 10.00 Partly Cloudy SCT050 77 55.4 47% 79 30.13 0.0
19 12:55 SW 9 G 16 10.00 Partly Cloudy SCT050 77 57.2 51% 79 30.14 0.0
19 12:35 SW 13 G 16 10.00 Overcast OVC050 77 55.4 47% 79 30.14 0.0
19 12:15 SW 10 10.00 Mostly Cloudy SCT048 BKN055 73.4 55.4 53% 30.15 0.0
19 11:55 SW 9 10.00 Mostly Cloudy SCT046 BKN050 BKN065 73.4 55.4 53% 30.15 0.0
19 11:35 SW 7 10.00 Partly Cloudy SCT044 75.2 59 57% 78 30.15 0.0
19 11:15 SW 10 10.00 Fair CLR 73.4 57.2 57% 30.15 0.0
19 10:55 SW 12 10.00 Fair CLR 73.4 59 61% 30.15 0.0
19 10:35 W 8 10.00 Fair CLR 73.4 59 61% 30.15 0.0
19 10:15 SW 9 10.00 Fair CLR 71.6 57.2 61% 30.15 0.0
19 09:55 SW 8 10.00 Fair CLR 71.6 57.2 61% 30.16 0.0
19 09:35 SW 5 10.00 Fair CLR 69.8 57.2 64% 30.16 0.0
19 09:15 S 8 10.00 Fair CLR 69.8 57.2 64% 30.16 0.0
19 08:55 SW 8 10.00 Partly Cloudy SCT060 68 59 73% 30.17 0.0
19 08:35 S 6 10.00 Mostly Cloudy BKN060 68 59 73% 30.17 0.0
19 08:15 S 6 10.00 Overcast OVC060 66.2 59 78% 30.18 0.0
19 07:55 S 5 10.00 Mostly Cloudy BKN060 64.4 59 83% 30.18 0.0
19 07:35 S 3 10.00 Mostly Cloudy BKN060 62.6 59 88% 30.17 0.0
19 07:15 S 3 10.00 Mostly Cloudy BKN060 60.8 57.2 88% 30.17 0.0
19 06:55 S 3 10.00 Mostly Cloudy BKN060 59 57.2 94% 30.17 0.0
19 06:35 S 3 10.00 Mostly Cloudy BKN060 59 55.4 88% 30.17 0.0
19 06:15 Calm 10.00 Mostly Cloudy BKN060 57.2 55.4 94% 30.16 0.0
19 05:55 Calm 10.00 Mostly Cloudy BKN060 55.4 53.6 94% 30.16 0.0
19 05:35 Calm 10.00 Mostly Cloudy BKN060 55.4 53.6 94% 30.16 0.0
19 05:15 Calm 10.00 Partly Cloudy SCT060 55.4 53.6 94% 30.16 0.0
19 04:55 Calm 10.00 Partly Cloudy SCT060 55.4 53.6 94% 30.16 0.0
19 04:35 Calm 10.00 Mostly Cloudy BKN060 57.2 55.4 94% 30.16 0.0
19 04:15 Calm 10.00 Mostly Cloudy BKN060 55.4 53.6 94% 30.16 0.0
19 03:55 Calm 10.00 Fair CLR 55.4 53.6 94% 30.15 0.0
19 03:35 Calm 10.00 Fair CLR 55.4 53.6 94% 30.15 0.0
19 03:15 Calm 10.00 Fair CLR 55.4 53.6 94% 30.16 0.0
19 02:55 Calm 10.00 Fair CLR 55.4 53.6 94% 30.16 0.0
19 02:35 Calm 10.00 Fair CLR 55.4 53.6 94% 30.16 0.0
19 02:15 Calm 10.00 Fair CLR 55.4 53.6 94% 30.16 0.0
19 01:55 Calm 10.00 Fair CLR 57.2 53.6 88% 30.16 0.0
19 01:35 Calm 7.00 Fair CLR 57.2 55.4 94% 30.16 0.0
19 01:15 Calm 10.00 Fair CLR 57.2 55.4 94% 30.16 0.0
19 00:55 Calm 10.00 Fair CLR 57.2 55.4 94% 30.16 0.0
19 00:35 Calm 10.00 Fair CLR 57.2 55.4 94% 30.16 0.0
19 00:15 Calm 10.00 Fair CLR 59 55.4 88% 30.16 0.0
18 23:55 Calm 10.00 Fair CLR 59 57.2 94% 30.16 0.0
18 23:35 Calm 10.00 Fair CLR 59 57.2 94% 30.16 0.0
18 23:15 Calm 10.00 Fair CLR 60.8 57.2 88% 30.16 0.0
18 22:55 Calm 10.00 Fair CLR 60.8 59 94% 30.16 0.0
18 22:35 Calm 10.00 Fair CLR 60.8 57.2 88% 30.16 0.0
18 22:15 Calm 10.00 Fair CLR 62.6 57.2 83% 30.16 0.0
18 21:55 Calm 10.00 Partly Cloudy SCT060 62.6 57.2 83% 30.16 0.0
18 21:35 Calm 10.00 Partly Cloudy SCT060 64.4 57.2 78% 30.16 0.0
18 21:15 Calm 10.00 Partly Cloudy SCT060 64.4 57.2 78% 30.16 0.0
18 20:55 Calm 10.00 Fair CLR 66.2 57.2 73% 30.15 0.0
18 20:35 Calm 10.00 Fair CLR 71.6 53.6 53% 30.15 0.0
18 20:15 SW 3 10.00 Fair CLR 71.6 53.6 53% 30.16 0.0
18 19:55 SW 5 10.00 Fair CLR 71.6 53.6 53% 30.16 0.0
18 19:35 W 3 10.00 Fair CLR 73.4 53.6 50% 30.16 0.0
18 19:15 SW 3 10.00 Fair CLR 73.4 53.6 50% 30.17 0.0
18 18:55 Calm 10.00 Fair CLR 73.4 55.4 53% 30.17 0.0
18 18:35 Calm 10.00 Partly Cloudy SCT065 75.2 51.8 44% 78 30.17 0.0
18 18:15 SE 3 10.00 Fair CLR 73.4 53.6 50% 30.18 0.0
18 17:55 SE 5 10.00 Partly Cloudy SCT070 75.2 53.6 47% 78 30.18 0.0
18 17:35 SE 5 10.00 Partly Cloudy SCT070 73.4 53.6 50% 30.18 0.0
18 17:15 S 6 10.00 Mostly Cloudy BKN070 73.4 53.6 50% 30.19 0.0
18 16:55 S 6 10.00 Fair CLR 75.2 53.6 47% 78 30.19 0.0
18 16:35 NW 3 10.00 Fair CLR 77 51.8 42% 78 30.19 0.0
18 16:15 W 3 10.00 Fair CLR 75.2 51.8 44% 78 30.2 0.0
18 15:55 Calm 10.00 Partly Cloudy SCT070 77 51.8 42% 78 30.2 0.0
18 15:35 Calm 10.00 Partly Cloudy SCT070 77 51.8 42% 78 30.21 0.0
18 15:15 NW 7 10.00 Partly Cloudy SCT055 75.2 51.8 44% 78 30.21 0.0
18 14:55 Calm 10.00 Partly Cloudy SCT055 SCT070 77 53.6 44% 78 30.21 0.0
18 14:35 Calm 10.00 Partly Cloudy SCT055 75.2 53.6 47% 78 30.21 0.0
18 14:15 Calm 10.00 Partly Cloudy SCT055 73.4 51.8 47% 30.22 0.0
18 13:55 NW 3 10.00 Mostly Cloudy BKN055 71.6 51.8 50% 30.22 0.0
18 13:35 Calm 10.00 Partly Cloudy SCT055 71.6 50 47% 30.22 0.0
18 13:15 Calm 10.00 Fair CLR 73.4 50 44% 30.22 0.0
18 12:55 W 5 10.00 Partly Cloudy SCT050 71.6 50 47% 30.23 0.0
18 12:35 N 5 10.00 Partly Cloudy SCT050 71.6 51.8 50% 30.23 0.0
18 12:15 N 3 10.00 Partly Cloudy SCT050 73.4 53.6 50% 30.23 0.0
18 11:55 W 5 10.00 Partly Cloudy SCT050 73.4 51.8 47% 30.24 0.0
18 11:35 NW 3 10.00 Partly Cloudy SCT050 71.6 51.8 50% 30.24 0.0
18 11:15 Calm 10.00 Partly Cloudy SCT050 71.6 51.8 50% 30.24 0.0
18 10:55 W 3 10.00 Fair CLR 71.6 51.8 50% 30.24 0.0
18 10:35 NW 5 10.00 Fair CLR 69.8 53.6 57% 30.24 0.0
18 10:15 W 3 10.00 Fair CLR 69.8 53.6 57% 30.24 0.0
18 09:55 Calm 10.00 Fair CLR 69.8 53.6 57% 30.24 0.0
18 09:35 NW 5 10.00 Fair CLR 69.8 53.6 57% 30.24 0.0
18 09:15 W 3 10.00 Fair CLR 68 55.4 64% 30.24 0.0
18 08:55 Calm 10.00 Fair CLR 68 57.2 69% 30.25 0.0
18 08:35 Calm 10.00 Fair CLR 64.4 59 83% 30.25 0.0
18 08:15 Calm 10.00 Fair CLR 62.6 59 88% 30.25 0.0
18 07:55 Calm 10.00 Fair CLR 60.8 59 94% 30.25 0.0
18 07:35 Calm 10.00 Fair CLR 59 59 100% 30.24 0.0
18 07:15 Calm 10.00 Fair CLR 55.4 55.4 100% 30.25 0.0
18 06:55 Calm 10.00 Fair CLR 53.6 53.6 100% 30.24 0.0
18 06:35 Calm 10.00 Fair CLR 51.8 51.8 100% 30.24 0.0
18 06:15 Calm 10.00 Fair CLR 51.8 51.8 100% 30.24 0.0
18 05:55 Calm 0.75 Fog/Mist BKN001 51.8 51.8 100% 30.24 0.0
18 05:35 Calm 10.00 Partly Cloudy SCT001 51.8 51.8 100% 30.24 0.0
18 05:15 Calm 10.00 Fair CLR 51.8 51.8 100% 30.24 0.0
18 04:55 Calm 10.00 Fair CLR 51.8 51.8 100% 30.24 0.0
18 04:35 Calm 10.00 Fair CLR 51.8 51.8 100% 30.24 0.0
17 22:15 Calm 10.00 Fair CLR 59 53.6 82% 30.19 0.0
17 21:55 Calm 10.00 Fair CLR 59 53.6 82% 30.19 0.0
17 21:35 Calm 10.00 Fair CLR 60.8 53.6 77% 30.18 0.0
17 21:15 Calm 10.00 Fair CLR 62.6 53.6 73% 30.17 0.0
17 20:55 Calm 10.00 Partly Cloudy SCT055 62.6 53.6 73% 30.17 0.0
17 20:35 Calm 10.00 Fair CLR 66.2 51.8 60% 30.17 0.0
17 20:15 Calm 10.00 Fair CLR 68 51.8 56% 30.17 0.0
17 19:55 Calm 10.00 Fair CLR 68 51.8 56% 30.17 0.0
17 19:35 Calm 10.00 Fair CLR 68 51.8 56% 30.17 0.0
17 19:15 Calm 10.00 Fair CLR 68 50 53% 30.17 0.0
17 18:55 N 7 10.00 Partly Cloudy SCT050 SCT070 69.8 50 50% 30.17 0.0
17 18:35 NW 5 10.00 Partly Cloudy SCT050 SCT070 69.8 50 50% 30.17 0.0
17 18:15 N 5 10.00 Partly Cloudy SCT055 SCT070 69.8 50 50% 30.17 0.0
17 17:55 N 5 10.00 Partly Cloudy SCT055 SCT065 71.6 51.8 50% 30.17 0.0
17 17:35 N 7 10.00 Overcast OVC065 69.8 50 50% 30.17 0.0
17 17:15 N 7 10.00 Overcast OVC065 71.6 50 47% 30.17 0.0
17 16:55 N 8 10.00 Mostly Cloudy BKN060 69.8 50 50% 30.17 0.0
17 16:35 N 9 10.00 Partly Cloudy SCT049 69.8 50 50% 30.17 0.0
17 16:15 N 9 10.00 Mostly Cloudy BKN049 69.8 51.8 53% 30.17 0.0
17 15:55 N 7 G 10 10.00 Mostly Cloudy BKN049 69.8 50 50% 30.17 0.0
17 15:35 N 8 10.00 Mostly Cloudy BKN049 69.8 50 50% 30.17 0.0
17 15:15 N 10 G 17 10.00 Partly Cloudy SCT049 69.8 50 50% 30.17 0.0
17 14:55 N 12 G 20 10.00 Partly Cloudy SCT049 69.8 50 50% 30.17 0.0
17 14:35 N 9 G 16 10.00 Partly Cloudy SCT045 68 50 53% 30.17 0.0
17 14:15 N 13 G 17 10.00 Partly Cloudy SCT045 69.8 51.8 53% 30.16 0.0
17 13:55 NE 10 G 16 10.00 Partly Cloudy SCT045 69.8 51.8 53% 30.16 0.0
17 13:35 N 10 G 17 10.00 Partly Cloudy SCT043 69.8 51.8 53% 30.16 0.0
17 13:15 N 8 G 18 10.00 Partly Cloudy SCT042 68 51.8 56% 30.16 0.0
17 12:55 NE 12 G 17 10.00 Fair CLR 68 51.8 56% 30.16 0.0
17 12:35 N 13 G 17 10.00 Fair CLR 68 51.8 56% 30.16 0.0
17 12:15 N 7 10.00 Fair CLR 68 50 53% 30.16 0.0
17 11:55 N 12 G 18 10.00 Fair CLR 68 50 53% 30.16 0.0
17 11:35 N 14 10.00 Fair CLR 68 50 53% 30.16 0.0
17 11:15 N 14 10.00 Fair CLR 66.2 50 56% 30.16 0.0
Date Time (cdt) Wind (mph) Vis. (mi.) Weather Sky Cond. Air Dwpt Max. Min. Relative Humidity Wind Chill (°F) Heat Index (°F) altimeter (in) sea level (mb) 1 hr 3 hr 6 hr
6 hour
Temperature (ºF) Pressure Precipitation (in)